Volver al catálogo

ERS 2 DEB

ActivoSSO
NORAD 35393·DEBRIS·🇪🇺 EU

Lanzado Apr 21, 1995 desde Guiana Space Centre

Loading…

Próximos Pases (próximas 24 horas)

TLE

ActualizadoSource: Space-Track

Época: Sep 14, 2026, 10:42 UTC

1 35393U 95021G   26257.44589757  .00001826  00000-0  41970-3 0  9992
2 35393  98.5191 239.1950 0005138  34.7541 116.4481 14.56678269215207

Sigue ERS 2 DEB en tiempo real con AllMySat

Download on the App Store